Location: Diati
(11.8376°N, 2.5966°E)
Time: 18:20:10
(UTC+00:00)

Milstar 3 - Pass Details

Date: 21 September 2020
Orbit: 1101 x 5144 km, 28.2° (Epoch: 25 September)

Event Time Altitude Azimuth Distance (km) Brightness Sun altitude
Rises 19:47:46 0° 214° (SSW) 4,033 6.0 -30.5°
Reaches altitude 10° 19:50:31 10° 203° (SSW) 3,236 5.3 -31.2°
Enters shadow 19:54:44 27° 171° (S) 2,496 4.4 -32.2°
